Regional Weather Roundup
Issued by NWS Goodland, KS

Home | Current Version | Previous Version | Text Only | Print | Product List | Glossary Off
Versions: 1 2 3 4 5 6 7 8 9 10 11 12 13 14 15 16 17 18 19 20 21 22 23 24 25 26 27 28 29 30 31 32 33 34 35 36 37 38 39 40 41 42 43 44 45 46 47 48 49 50

000
ASUS43 KGLD 180559
RWRGLD

GOODLAND FORECAST AREA HOURLY WEATHER ROUNDUP
NATIONAL WEATHER SERVICE GOODLAND KS
1200 AM MDT FRI APR 18 2014

...OFFICIAL OBSERVATIONS...

CITY           SKY/WX    TMP DP  RH WIND       PRES   REMARKS
GOODLAND KS    CLEAR     40  37  89 S21       30.14S
HILL CITY KS   FAIR      42  37  82 S7        30.21S
IMPERIAL NEB   CLEAR     42  37  82 S16       30.10S
MCCOOK NEB     CLEAR     42  37  82 S8        30.16S
AKRON CO       CLEAR     42  35  76 S23G35    30.04S
BURLINGTON CO  CLEAR     39  36  89 S21       30.12S
LIMON CO       CLEAR     35  33  92 SE12      30.10F
$$

...UNOFFICIAL OBSERVATIONS...

CITY           SKY/WX    TMP DP  RH WIND       PRES   REMARKS
COLBY KS       CLEAR     43  41  93 S14       30.17S
GOVE KS          N/A     41  32  70 S5          N/A
LENORA KS        N/A     43  32  65 S12         N/A
LEOTI KS         N/A     40  32  72 S8          N/A
NORTON KS      CLEAR     37  30  75 S8        30.18S
SHARON SPRINGS   N/A     39  36  90 S14         N/A
WAKEENEY KS      N/A     43  36  75 MISG        N/A
TRENTON NEB      N/A     41  32  70 S12         N/A
KIT CARSON CO    N/A     38  35  89 MISG        N/A
$$



USA.gov is the U.S. government's official web portal to all federal, state and local government web resources and services.